User: anonymous   Login
Location: Deep South Regional Star Gaze
(30.9929°N, 90.9586°W)
Time: 06:31:29
(UTC-06:00)
Language:

H-2A R/B - Orbit

View from above orbital plane
View from above orbital plane
View from above satellite
View from above satellite

Ground track
Ground track

The orbit data is extracted from the following two-line orbital elements,

1 26899U 01038B   15058.91682706  .00002060  00000-0  63798-3 0  9998
2 26899 028.3207 044.9315 7147818 354.2646 248.7833 02.44473303115776
Epoch (UTC): 27 February 2015 22:00:13
Eccentricity: 0.7147818
inclination: 28.3207°
perigee height: 260 km
apogee height: 33535 km
right ascension of ascending node: 44.9315°
argument of perigee: 354.2646°
revolutions per day: 2.44473303
mean anomaly at epoch: 248.7833°
orbit number at epoch: 11577

The dashed part of the orbit path shows where the satellite is in the earth's shadow,  

DLR